www.pogodaiklimat.ru

Погода и климат >> Архив погоды >> Антарктида >> San Martin Base


ПОГОДА в San Martin Base

  • Прогноз погоды в San Martin Base
  • Монитор погоды в San Martin Base
  • Климат города

АРХИВ ПОГОДЫ в San Martin Base

Время (UTC), дата Ветер
(напр.,м/с)
 
Видим.   Явления Облачность Т
(С)
Тd
(С)
f
(%)
Тe
(С)
Тes
(С)
Комфортность P
(гПа)
Po
(гПа)
Тmin
(С)
Tmax
(С)
R
(мм)
R24
(мм)
S
(см)
03 15.02 ЮВ 2 5000 м слабый снег 10/10 210 м
[St]
+0.2 -0.4 96 -4 -4 973.0 972.1
06 15.02 штиль 0 2000 м слабый снег 10/10 150 м
[St]
+0.4 -0.7 92 -1 -1 975.7 974.8 1
09 15.02 С 3 2000 м слабый снег 10/10 90 м
[St]
+0.4 -0.2 96 -4 -4 978.9 978.0
12 15.02 штиль 0 1500 м слабый снег 10/10 60 м
[St]
+0.4 -0.2 96 -1 -1 981.4 980.5 +0.2 +1.0 2
15 15.02 Ю 2 3000 м слабый снег 10/8 150 м
[St As op]
+0.6 +0.3 98 -3 -3 983.4 982.5
18 15.02 Ю 3 20 км {снег} 10/6 300 м
[St Ac As]
+1.2 +0.1 92 -3 -2 984.8 983.8 0.6
21 15.02 ЮВ 2 20 км 6/5 1200 м
[Sc Ac As]
+1.8 +0.2 89 -2 -1 985.8 984.9
00 16.02 Ю 5 20 км 8/0
[Ac As Cs]
+1.2 -0.5 88 -4 -4 984.1 983.2 0.0 +3.2
03 16.02 ЮВ 3 20 км 10/6 1350 м
[Sc Ac As]
+1.0 -0.7 88 -3 -3 982.2 981.3
06 16.02 Ю 2 20 км 10/6 600 м
[Sc Ac As]
+2.0 -2.3 73 -1 -1 979.8 978.9
09 16.02 СЗ 3 20 км 9/0
[Ac As Cs]
+2.4 -2.8 69 -1 -1 977.4 976.5
12 16.02 С 1 20 км 9/5 600 м
[Sc Ac As Cs]
+3.0 -1.4 73 +2 +3 978.0 977.0 +0.5 +3.8 0.6
15 16.02 С 5 20 км 9/5 600 м
[Sc Ac As]
+5.6 -3.5 52 +2 +2 979.2 978.4
18 16.02 С 5 20 км 9/5 600 м
[Sc Ac As]
+5.6 -3.5 52 +2 +2 979.2 978.4
21 16.02 ЮВ 2 20 км 6/3 1050 м
[Sc diur, vesp Ac As Ci]
+4.2 -0.6 71 +2 +3 981.2 980.2
00 17.02 ЮВ 2 20 км 8/0
[Ac und]
+2.6 -1.3 75 0 0 981.9 981.0 +2.0 +8.6
03 17.02 В 2 20 км 6/0
[Ac As]
+1.0 -1.3 85 -2 -2 982.6 981.7
06 17.02 С 4 20 км 3/0
[Cs]
+1.2 -1.7 81 -4 -4 984.2 983.3
12 17.02 С 2 20 км 9/9 600 м
[]
+1.4 -0.2 89 -2 -2 988.1 987.2
15 17.02 СЗ 4 8000 м дымка 6/4 150 м
[St Cs]
+2.4 +0.8 89 -2 0 990.7 989.8
18 17.02 СЗ 5 8000 м дымка 8/6 30 м
[St Cs]
+1.8 +0.7 92 -4 -2 992.3 991.4
21 17.02 штиль 0 4000 м дымка 6/3 30 м
[St Cs]
+2.2 +1.2 93 +1 +3 993.6 992.6
00 18.02 штиль 0 800 м туман ?/? +0.4 -0.2 96 -1 -1 994.8 993.8 +0.4 +3.2
03 18.02 ЮВ 2 500 м туман 9/9 60 м
[St]
-1.6 -2.1 96 -6 -6 995.4 994.5
06 18.02 штиль 0 100 м туман ?/? -0.8 -0.9 99 -2 -2 995.9 995.0
09 18.02 ЮВ 2 <100 м туман ?/? -2.2 -2.5 98 -6 -6 996.1 995.2
12 18.02 ЮВ 3 100 м туман ?/? -3.0 -3.0 100 -9 -9 996.5 995.6 -3.6 +0.4
15 18.02 ЮВ 2 100 м туман ?/? -3.0 -3.0 100 -7 -7 995.9 995.0
18 18.02 С 2 100 м туман ?/? -1.4 -1.6 99 -5 -5 995.7 994.8
21 18.02 штиль 0 20 км {туман} 4/0
[Ac As]
+1.0 -1.9 81 0 +2 995.2 994.2
00 19.02 СЗ 7 300 м туман ?/? -1.4 -1.6 99 -9 -9 995.8 994.9 +1.8
03 19.02 С 2 <100 м туман ?/? -2.2 -2.5 98 -6 -6 996.4 995.4
06 19.02 ЮВ 3 <100 м туман ?/? -3.2 -3.2 100 -9 -9 996.6 995.7
09 19.02 штиль 0 800 м туман местами 5/4 30 м
[St Ci]
-3.6 -3.6 100 -5 -5 996.7 995.8
12 19.02 ЮВ 2 20 км {туман} 9/0
[Ci]
-2.4 -2.7 98 -7 -5 996.9 996.0 -4.2 -1.4
21 19.02 СЗ 3 600 м туман ?/? -0.8 -1.5 95 -5 -5 996.6 995.7
00 20.02 В 2 600 м слабая морось {туман} 10/10 60 м
[St]
-1.6 -1.8 99 -5 -5 997.4 996.5 -2.8 +1.3 0.0
03 20.02 СВ 2 3000 м слабый снег {морось} 10/10 90 м
[St]
-2.0 -2.9 94 -5 -5 995.9 995.0
06 20.02 В 3 3000 м слабый снег 10/10 150 м
[St]
-3.4 -4.1 95 -8 -8 994.8 993.8 0.5
09 20.02 штиль 0 5000 м слабый снег 10/10 150 м
[St]
-3.4 -4.1 95 -5 -5 994.3 993.4
12 20.02 Ю 5 6000 м туман местами {снег} 8/4 60 м
[St Ac As Cs]
-2.2 -3.7 89 -9 -8 992.8 991.8 -4.6 -1.0 36
15 20.02 Ю 3 20 км 9/4 1200 м
[Sc Ac As Cs]
-0.8 -3.3 83 -6 -4 992.2 991.3
18 20.02 ЮВ 3 20 км 6/0
[Ac As Cs]
+0.8 -1.5 85 -4 -0 990.9 990.0
21 20.02 ЮВ 3 20 км 6/0
[Ac As Cs]
+2.0 -2.0 75 -2 -1 989.2 988.2
00 21.02 ЮВ 3 20 км 6/0
[Ac As]
+0.7 -2.9 77 -3 -3 987.5 986.6 -2.5 +3.0
03 21.02 В 2 20 км 4/0
[Ac As]
-0.6 -3.0 84 -4 -4 986.0 985.2
06 21.02 штиль 0 20 км 4/0
[Ac As]
-0.6 -3.0 84 -2 -2 985.2 984.2
09 21.02 В 2 20 км 4/0
[Ac As]
-1.0 -4.2 79 -5 -5 985.4 984.5
12 21.02 В 2 20 км 9/0
[Ac As Cs]
+1.0 -0.7 88 -3 -2 984.6 983.7 -1.6 +1.2
15 21.02 Ю 2 20 км 6/0
[Ac As Cs]
+2.4 -1.5 75 -1 +3 984.5 983.6
18 21.02 ЮВ 3 20 км 10/4 1350 м
[Sc Ac As]
+3.0 -2.1 69 -0 +1 983.2 982.2
21 21.02 штиль 0 20 км 10/0
[Ac As]
+3.2 -0.6 76 +2 +3 981.3 980.4

 

Местоположение метеостанции San Martin Base (Антарктида): широта -68.11 долгота -67.13 высота над уровнем моря 4 м.

В архиве по умолчанию представлена погода в San Martin Base за последнюю неделю. Архивные данные за месяц целиком и за предыдущие месяцы, начиная с января 2011 года, Вы можете получить, выбрав интересующий диапазон дат из раскрывающегося списка и нажав кнопку "Ввод!".

Внимание! Время в таблицах - всемирное. Для получения местного времени необходимо прибавить поправку, которая в San Martin Base равна 0 ч.

Смотрите также архив погоды в соседних городах и на ближайших метеорологических станциях:

Погода в Rothera (Антарктида) (74 км)
Погода в Larsen Ice Shelf (Антарктида) (267 км)
Погода в Vernadsky (Антарктида) (342 км)
Погода в Fossil Bluff (Антарктида) (361 км)
Погода в Palmer Station (Антарктида) (396 км)
Погода в Butler Island (Антарктида) (525 км)
Погода в Marambio Base (Антарктида) (635 км)
Погода в Bernardo o`Higgins (Антарктида) (679 км)
Погода в Juan Carlos Island (Антарктида) (681 км)
Погода в Esperanza Base (Антарктида) (698 км)

Пояснения к столбцам:

Ветер - указаны скорость ветра в м/с - средняя за 10 мин, порывы в срок и между сроками (в фигурных скобках) и направление, откуда дует ветер: С - северный, СВ - северо-восточный, В - восточный, ЮВ - юго-восточный, Ю - южный, ЮЗ - юго-западный, З - западный, СЗ - северо-западный.
Видимость - горизонтальная дальность видимости в метрах или километрах. При видимости от 1 до 10 км при отсутствии осадков обычно наблюдается дымка, при ухудшении видимости до 1 км и менее - туман. В сухую погоду видимость может ухудшаться дымом, пылью или мглою.
Явления - указаны атмосферные явления, наблюдавшиеся в срок или в последний час перед сроком; фигурными скобками обозначены явления, наблюдавшиеся между сроками (за 1-3 часа до срока); квадратными скобками обозначены град или гололедные отложения с указанием их диаметра в мм.
Облачность - указаны через наклонную черту общая и нижняя облачность в баллах и высота нижней границы облаков в метрах; квадратными скобками обозначены формы облаков: Ci - перистые, Cs - перисто-слоистые, Cc - перисто-кучевые, Ac - высококучевые, As - высокослоистые, Sc - слоисто-кучевые, Ns - слоисто-дождевые, Cu - кучевые, Cb - кучево-дождевые. Подробнее классификацию облаков см. в Атласе облаков (PDF).
T - Температура воздуха - температура, измеренная на высоте 2 м над землей.
Td - Температура точки росы - температура, при понижении до которой содержащийся в воздухе водяной пар достигнет насыщения.
f - Относительная влажность воздуха - влажноcть воздуха, измеренная на высоте 2 м над землей.
Te - Эффективная температура - температура, которую ощущает одетый по сезону человек в тени. Характеристика душности погоды. При расчете учитывается влияние влажности воздуха и скорости ветра на теплоощущения человека.
Tes - Эффективная температура на солнце - температура, которую ощущает человек, с поправкой на солнечный нагрев. Характеристика знойности погоды. Зависит от высоты солнца над горизонтом, облачности и скорости ветра. Ночью, в пасмурную погоду, а также при ветре 12 м/с и более поправка равна нулю.
P - Атмосферное давление - приведенное к уровню моря атмосферное давление.
Po - Атмосферное давление - измеренное на уровне метеостанции атмосферное давление.
Tmin - Минимальная температура - минимум температуры воздуха на высоте 2 м над землей.
Tmax - Максимальная температура - максимум температуры воздуха на высоте 2 м над землей.
R - Количество осадков - Количество выпавших осадков за период времени, мм. При наведении курсора мыши на число - период времени, за который выпало указанное количество осадков.
R24 - Количество осадков - Количество выпавших осадков за 24 часа, мм.
S - Снежный покров - Высота снежного покрова, см. При наведении курсора мыши на число - состояние снежного покрова и степень покрытия местности в баллах.